Location: Newark
(42.8481°N, 0.4872°E)
Time: 09:25:20
(UTC+00:00)

A-11 Canister half - Pass Details

Date: 29 October 2020
Orbit: 1516 x 1684 km, 47.2° (Epoch: 04 December)

Event Time Altitude Azimuth Distance (km) Brightness Sun altitude
Rises 18:06:49 0° 201° (SSW) 4,919 12.0 -13.9°
Reaches altitude 10° 18:10:23 10° 192° (SSW) 3,937 11.4 -14.5°
Maximum altitude 18:19:04 34° 133° (SE) 2,520 9.8 -16.1°
Enters shadow 18:23:59 22° 89° (E) 3,047 9.9 -17.0°
